Location: *
(51.8167°N, 12.5000°E)
Time: 07:59:15
(UTC+00:00)

Cosmos 1892 Rocket - Pass Details

Date: 16 September 2019
Orbit: 605 x 634 km, 82.5° (Epoch: 15 October)

Event Time Altitude Azimuth Distance (km) Brightness Sun altitude
Rises 18:53:14 0° 351° (N) 2,940 7.5 -14.3°
Reaches altitude 10° 18:55:31 10° 355° (N) 2,025 6.6 -14.6°
Maximum altitude 18:59:59 62° 77° (ENE) 709 3.6 -15.2°
Enters shadow 19:02:55 20° 153° (SSE) 1,439 5.0 -15.6°
